[[{"header":{"parameterUnit":"m.s-1","parameterCategory":1,"la1":30.2991,"la2":30.254,"lo1":-89.0895,"lo2":-89.0444,"dy":0.0017,"dx":0.0017,"nx":28,"ny":28,"refTime":"2025-09-11T21:00:00:Z","depth":0,"parameterNumber":2,"parameterNumberName":"U-component_of_WINDS"},"data":[0,0,0,0,0,0,0,0,0,0,0,0,0,0,0,0,0,0,0,0,0,0,0,0,0,0,0,0,0,0,0,0,0,0,0,0,0,0,0,0,0,0,0,0,0,0,0,0,0,0,0,0,0,0,0,0,0,0,-1.2264,-1.2257,0,-1.1634,-1.1626,-1.1619,-1.126,-1.1259,-1.1257,-1.1256,-1.0587,-1.0571,-1.0554,0,0,0,0,0,0,0,0,0,0,0,0,0,-1.3132,-1.3118,-1.2265,-1.2257,-1.2249,-1.1635,-1.1626,-1.1617,-1.126,-1.1259,-1.1257,-1.1256,-1.0592,-1.0573,-1.0553,0,0,0,0,0,0,0,0,0,0,0,0,0,-1.2654,-1.3114,-1.2266,-1.1997,-1.1967,-1.1637,-1.1626,-1.1615,-1.126,-1.1259,-1.1257,-1.1255,-1.0599,-1.0575,-1.055,-1.0431,0,0,-1.0473,-1.0462,0,0,0,0,0,0,0,0,-1.2681,-1.2622,-1.2044,-1.2015,-1.1981,-1.1524,-1.1686,-1.1217,-1.1261,-1.1528,-1.1256,-1.1254,-1.0898,-1.0849,-1.0733,-1.04,-1.0371,-1.0471,-1.0456,-1.0445,-1.0438,0,0,0,0,0,0,0,-1.2715,-1.2647,-1.2014,-1.2036,-1.1997,-1.1899,-1.1829,-1.1595,-1.123,-1.1504,-1.1477,-1.1408,-1.088,-1.0759,-1.0715,-1.0361,-1.0472,-1.0449,-1.0434,-1.0424,-0.9888,-0.9888,0,0,0,0,0,0,-1.2795,-1.2677,-1.2034,-1.1995,-1.2335,-1.1885,-1.1807,-1.1672,-1.1232,-1.1164,-1.1411,-1.1394,-1.0802,-1.0745,-1.069,-1.0517,-1.0445,-1.0422,-1.0407,-0.9887,-0.9888,-0.9889,0,0,0,0,0,0,-1.2815,-1.2741,-1.2059,-1.2328,-1.2234,-1.1872,-1.1723,-1.166,-1.1539,-1.1161,-1.1092,-1.1355,-1.0799,-1.0725,-1.0498,-1.0489,-1.041,-1.0388,-0.9886,-0.9887,-0.9888,-1.0176,0,0,0,0,0,0,-1.2841,-1.275,-1.2709,-1.2331,-1.2222,-1.1888,-1.1723,-1.1649,-1.1499,-1.1472,-1.1091,-1.1026,-1.0792,-1.0537,-1.0473,-1.0453,-1.0368,-0.9885,-0.9887,-0.9888,-1.0165,-1.0187,-1.0205,0,0,0,0,0,-1.2874,-1.2811,-1.2708,-1.2633,-1.2163,-1.1888,-1.1824,-1.1563,-1.1501,-1.145,-1.1206,-1.1038,-1.0501,-1.0517,-1.0441,-1.0415,-0.9884,-0.9886,-0.9888,-1.0156,-1.0182,-1.0204,0,0,0,0,0,0,-1.319,-1.2757,-1.2638,-1.2453,-1.2211,-1.1828,-1.1758,-1.16,-1.1364,-1.1348,-1.1025,-1.0942,-1.0744,-1.0554,-1.0581,-1.0271,-1.0173,-1.016,-1.0404,-1.0425,-1.0445,-1.0493,-1.0347,0,0,0,0,0,-1.324,-1.3061,-1.2688,-1.256,-1.2445,-1.2124,-1.1994,-1.1814,-1.1546,-1.144,-1.1179,-1.092,-1.069,-1.0547,-1.0316,-1.0135,-1.0042,-1.0078,-1.0098,-1.0116,-1.0108,-0.9991,-1.0001,-0.9895,-0.9894,-0.9894,0,0,-1.3338,-1.3078,-1.2984,-1.2617,-1.2408,-1.2221,-1.2039,-1.185,-1.1706,-1.1407,-1.1179,-1.0978,-1.0665,-1.046,-1.0356,-1.0296,-1.0117,-1.0119,-1.0136,-1.0117,-0.9994,-1.0005,-1.0014,-0.9896,-0.9895,-0.9895,0,0,-1.3421,-1.3211,-1.3079,-1.2874,-1.2562,-1.2348,-1.2317,-1.1956,-1.1814,-1.158,-1.1351,-1.1168,-1.0784,-1.0569,-1.041,-1.0407,-1.024,-1.034,-1.0443,-1.0332,-1.0341,-1.0346,-1.0341,-1.0343,-1.0333,-1.0334,-1.0334,0,-1.358,-1.3299,-1.3029,-1.2853,-1.2695,-1.2423,-1.2282,-1.2092,-1.1719,-1.1611,-1.1552,-1.106,-1.083,-1.0568,-1.0568,-1.0449,-1.0396,-1.0382,-1.0363,-1.0366,-1.0367,-1.0358,-1.0357,-1.0348,-1.0346,-1.0345,-1.0343,0,-1.3508,-1.3315,-1.3244,-1.2899,-1.2731,-1.2574,-1.2271,-1.2132,-1.1965,-1.1754,-1.1514,-1.1229,-1.0933,-1.0857,-1.0689,-1.0568,-1.054,-1.0427,-1.0321,-1.0396,-1.0381,-1.0376,-1.0368,-1.0363,-1.0358,-1.0355,0,0,-1.3775,-1.3281,-1.3259,-1.3097,-1.273,-1.2571,-1.2396,-1.2115,-1.2,-1.1748,-1.1588,-1.1267,-1.1159,-1.0978,-1.0782,-1.0686,-1.0695,-1.058,-1.0568,-1.0609,-1.0536,-1.0624,-1.0625,-1.0583,-1.0581,-1.0579,-1.0561,0,-1.3804,-1.3489,-1.3238,-1.3012,-1.2826,-1.2562,-1.2408,-1.2162,-1.1959,-1.1763,-1.1533,-1.131,-1.1186,-1.1074,-1.0967,-1.0719,-1.0676,-1.0715,-1.0422,-1.0415,-1.051,-1.0618,-1.0711,-1.0708,-1.0554,-1.0553,-1.0552,0,-1.3796,-1.3563,-1.3323,-1.2971,-1.2883,-1.2752,-1.247,-1.229,-1.2,-1.1857,-1.1656,-1.1453,-1.1245,-1.1161,-1.0866,-1.0899,-1.0762,-1.0621,-1.0613,-1.0575,-1.0489,-1.0579,-1.0701,-1.0701,-1.0541,-1.0542,-1.0543,0,-1.4013,-1.3636,-1.3442,-1.3311,-1.2898,-1.281,-1.2632,-1.2342,-1.2187,-1.1936,-1.183,-1.1558,-1.1407,-1.1195,-1.092,-1.0885,-1.0651,-1.0545,-1.052,-1.0527,-1.0482,-1.0489,-1.0583,-1.0399,-1.0399,-1.0399,-1.0399,0,-1.407,-1.3932,-1.3534,-1.3415,-1.3248,-1.2956,-1.2796,-1.2593,-1.2337,-1.2165,-1.1916,-1.1759,-1.1406,-1.1203,-1.0984,-1.077,-1.0704,-1.0576,-1.052,-1.0598,-1.0614,-1.0504,-1.0496,-1.0399,-1.0399,-1.0399,-1.0399,0,-1.4284,-1.4013,-1.3783,-1.3412,-1.3314,-1.3208,-1.2884,-1.2752,-1.2535,-1.2321,-1.2253,-1.1907,-1.1654,-1.136,-1.1008,-1.086,-1.0662,-1.0579,-1.0764,-1.0731,-1.0722,-1.0726,-1.0746,-1.0731,-1.0564,-1.0566,-1.0567,0,-1.4339,-1.4227,-1.3845,-1.3717,-1.3548,-1.3344,-1.3186,-1.289,-1.2733,-1.2393,-1.23,-1.203,-1.1799,-1.1405,-1.1116,-1.0843,-1.075,-1.0776,-1.0707,-1.0788,-1.0746,-1.0756,-1.074,-1.0795,-1.0798,-1.0801,-1.0803,0,-1.4463,-1.4334,-1.4121,-1.3859,-1.3679,-1.3456,-1.3221,-1.3127,-1.2781,-1.2616,-1.2359,-1.2181,-1.1823,-1.1555,-1.1246,-1.1049,-1.0866,-1.0827,-1.0806,-1.0885,-1.0995,-1.0932,-1.0813,-1.0828,-1.0825,-1.0824,-1.0822,-1.0821,-1.4595,-1.4483,-1.4196,-1.3964,-1.3758,-1.3544,-1.3402,-1.3168,-1.2951,-1.2644,-1.2479,-1.2224,-1.1926,-1.1494,-1.1303,-1.1092,-1.1029,-1.1,-1.0992,-1.0989,-1.101,-1.1032,-1.1034,-1.1033,-1.1031,-1.1031,-1.103,0,-1.4704,-1.4507,-1.4298,-1.3981,-1.3796,-1.3648,-1.3378,-1.3231,-1.3013,-1.2756,-1.2535,-1.2235,-1.1972,-1.1663,-1.1377,-1.1267,-1.1174,-1.1201,-1.1205,-1.1161,-1.1084,-1.113,-1.128,-1.128,-1.128,-1.128,-1.128,-1.128,-1.474,-1.454,-1.4376,-1.4067,-1.3866,-1.3622,-1.348,-1.3277,-1.3071,-1.2751,-1.2535,-1.2338,-1.2055,-1.1747,-1.1495,-1.1409,-1.1314,-1.1366,-1.1255,-1.1189,-1.1168,-1.1147,-1.1188,-1.1348,-1.1349,-1.1348,-1.1349,-1.1349]},{"header":{"parameterUnit":"m.s-1","parameterCategory":1,"la1":30.2991,"la2":30.254,"lo1":-89.0895,"lo2":-89.0444,"dy":0.0017,"dx":0.0017,"nx":28,"ny":28,"refTime":"2025-09-11T21:00:00:Z","depth":0,"parameterNumber":3,"parameterNumberName":"V-component_of_WINDS"},"data":[0,0,0,0,0,0,0,0,0,0,0,0,0,0,0,0,0,0,0,0,0,0,0,0,0,0,0,0,0,0,0,0,0,0,0,0,0,0,0,0,0,0,0,0,0,0,0,0,0,0,0,0,0,0,0,0,0,0,2.7526,2.7526,0,2.7432,2.7431,2.743,2.743,2.7432,2.7433,2.7434,2.732,2.7316,2.7312,0,0,0,0,0,0,0,0,0,0,0,0,0,2.769,2.7687,2.7527,2.7525,2.7524,2.7432,2.7431,2.7429,2.743,2.7432,2.7433,2.7435,2.7321,2.7316,2.7311,0,0,0,0,0,0,0,0,0,0,0,0,0,2.7609,2.7686,2.7527,2.7514,2.7512,2.7432,2.7431,2.7429,2.743,2.7432,2.7434,2.7435,2.7323,2.7317,2.731,2.7232,0,0,2.7291,2.7288,0,0,0,0,0,0,0,0,2.7614,2.7603,2.7517,2.7515,2.7512,2.7445,2.7447,2.7362,2.7429,2.746,2.7434,2.7436,2.7359,2.735,2.7327,2.7227,2.7222,2.729,2.7287,2.7284,2.7282,0,0,0,0,0,0,0,2.762,2.7607,2.7489,2.7516,2.7513,2.7507,2.7498,2.743,2.7399,2.7458,2.7458,2.7447,2.7358,2.7333,2.7324,2.722,2.7291,2.7285,2.7281,2.7278,2.7043,2.704,0,0,0,0,0,0,2.763,2.7612,2.7492,2.7486,2.757,2.7503,2.7492,2.7464,2.74,2.7393,2.7446,2.7448,2.7343,2.7332,2.732,2.7218,2.7284,2.7278,2.7274,2.7045,2.7042,2.7039,0,0,0,0,0,0,2.7634,2.762,2.7495,2.7549,2.7533,2.7498,2.7467,2.7462,2.7437,2.7391,2.7384,2.7428,2.7344,2.7329,2.7254,2.7215,2.7275,2.7269,2.7048,2.7044,2.7041,2.7018,0,0,0,0,0,0,2.7639,2.7621,2.7595,2.7549,2.753,2.7436,2.7465,2.7458,2.7428,2.743,2.7372,2.7364,2.7345,2.7263,2.7247,2.7207,2.7264,2.7051,2.7046,2.7042,2.7022,2.7014,2.7007,0,0,0,0,0,2.7644,2.759,2.7594,2.7579,2.7498,2.7434,2.7422,2.7406,2.7426,2.7395,2.7365,2.7366,2.7223,2.7255,2.7237,2.7195,2.7053,2.7047,2.7042,2.7025,2.7015,2.7007,0,0,0,0,0,0,2.7628,2.7584,2.7587,2.7518,2.748,2.7434,2.7396,2.7397,2.7349,2.7351,2.7328,2.7314,2.7237,2.7209,2.7246,2.7112,2.7139,2.713,2.7132,2.7123,2.7116,2.7121,2.7259,0,0,0,0,0,2.7618,2.7575,2.7536,2.7478,2.746,2.7432,2.7403,2.7394,2.7351,2.7333,2.7298,2.7252,2.7195,2.7159,2.7105,2.702,2.7002,2.6981,2.6973,2.6968,2.6957,2.6902,2.6889,2.7021,2.7021,2.7021,0,0,2.7592,2.7563,2.7537,2.7474,2.7444,2.7393,2.7418,2.7365,2.7324,2.7323,2.7249,2.7222,2.7168,2.7085,2.7047,2.7059,2.6918,2.6961,2.6956,2.6949,2.6895,2.6882,2.6871,2.7018,2.7018,2.7019,0,0,2.752,2.7498,2.7444,2.7414,2.7369,2.7351,2.7338,2.7292,2.7274,2.7202,2.7198,2.7147,2.7054,2.7013,2.698,2.6891,2.6886,2.6874,2.6833,2.6779,2.6769,2.6759,2.6719,2.6706,2.6866,2.6866,2.6866,0,2.7493,2.7423,2.7415,2.7361,2.733,2.7333,2.7274,2.7243,2.7181,2.7156,2.7173,2.7052,2.7016,2.6921,2.6899,2.6875,2.6852,2.6878,2.6773,2.6763,2.6753,2.6714,2.6701,2.6864,2.6864,2.6864,2.6865,0,2.7388,2.7339,2.73,2.7245,2.721,2.7154,2.713,2.7095,2.7089,2.7066,2.6987,2.6945,2.688,2.6858,2.685,2.6759,2.6767,2.6779,2.6805,2.6739,2.6702,2.6688,2.6862,2.6862,2.6863,2.6863,0,0,2.73,2.7242,2.7227,2.7199,2.7149,2.7108,2.7049,2.6991,2.6957,2.6914,2.6857,2.6778,2.6787,2.675,2.6737,2.6691,2.6613,2.6707,2.6705,2.6684,2.65,2.6485,2.6469,2.6613,2.661,2.6608,2.6501,0,2.7217,2.7119,2.7109,2.7017,2.6967,2.6968,2.6915,2.6875,2.6852,2.6801,2.6773,2.6714,2.6736,2.6712,2.6667,2.6632,2.6574,2.6641,2.6551,2.6548,2.6557,2.6451,2.6437,2.6339,2.6488,2.6485,2.6484,0,2.7108,2.7065,2.697,2.6923,2.6901,2.6855,2.6797,2.6752,2.6703,2.6689,2.6647,2.664,2.657,2.6605,2.6504,2.6549,2.6512,2.6488,2.6484,2.6468,2.6506,2.6425,2.6308,2.6289,2.6462,2.6464,2.6465,0,2.7043,2.6962,2.6893,2.6871,2.6816,2.6782,2.6757,2.6712,2.6675,2.6624,2.6598,2.6538,2.6502,2.6451,2.6424,2.6453,2.6321,2.6355,2.6299,2.6299,2.6265,2.6266,2.6132,2.6255,2.6255,2.6256,2.6256,0,2.6948,2.6887,2.6863,2.682,2.6749,2.6736,2.6665,2.664,2.6599,2.6544,2.6542,2.6489,2.6461,2.6402,2.638,2.6294,2.628,2.626,2.6253,2.6256,2.6257,2.6225,2.6227,2.6252,2.6252,2.6253,2.6254,0,2.6862,2.6845,2.6768,2.6724,2.6711,2.666,2.6619,2.6572,2.6551,2.6482,2.6464,2.6427,2.6358,2.6328,2.6241,2.6226,2.6124,2.6127,2.6142,2.6138,2.608,2.6082,2.5913,2.5886,2.6036,2.6034,2.6033,0,2.6799,2.6753,2.6704,2.6671,2.6645,2.6591,2.6555,2.6539,2.6499,2.6439,2.6397,2.633,2.6273,2.616,2.612,2.6051,2.6046,2.5992,2.6035,2.6037,2.6034,2.6034,2.6024,2.5981,2.598,2.5979,2.5978,0,2.6685,2.6679,2.663,2.6576,2.6534,2.649,2.6446,2.6417,2.6393,2.6347,2.6279,2.6236,2.6148,2.6076,2.6005,2.597,2.5965,2.5966,2.5947,2.5945,2.5951,2.5938,2.6111,2.5968,2.5969,2.5969,2.597,2.597,2.6603,2.6559,2.6518,2.6461,2.6428,2.6386,2.6339,2.6313,2.6257,2.6187,2.6181,2.6104,2.605,2.5955,2.5918,2.5852,2.5864,2.584,2.5832,2.5824,2.5815,2.597,2.584,2.584,2.584,2.584,2.584,0,2.6482,2.6456,2.6405,2.6345,2.6298,2.6308,2.6259,2.6216,2.6151,2.6105,2.6051,2.5967,2.5896,2.5852,2.5779,2.5734,2.5729,2.5714,2.5712,2.5702,2.5813,2.5832,2.5719,2.5719,2.5719,2.5719,2.5719,2.5719,2.6413,2.6338,2.6326,2.623,2.6203,2.6132,2.6102,2.606,2.6023,2.5931,2.5875,2.5849,2.58,2.5723,2.5655,2.5643,2.5612,2.5594,2.5581,2.5684,2.5696,2.5708,2.5725,2.559,2.559,2.5474,2.5473,2.5473]}]]